{"data":{"norad_id":63169,"epoch":"2026-09-22T20:34:40.771776Z","epoch_age_seconds":107099,"freshness":"FRESH","line1":"1 63169U 25046L   26265.85741634  .00000062  00000+0  64707-4 0  9996","line2":"2 63169  88.9644 289.6321 0013907   5.8200 354.3117 13.62065096 86277","mean_motion":13.62065096,"eccentricity":0.0013907,"inclination_deg":88.9644,"raan_deg":289.6321,"arg_perigee_deg":5.82,"mean_anomaly_deg":354.3117,"bstar":6.4707e-5,"rev_number":8627,"period_min":105.72181933366,"perigee_km":1017.896535077,"apogee_km":1038.4965111382,"semimajor_km":7406.3335231076,"source":"CELESTRAK","updated_at":"2026-09-23T09:00:21.849146Z"}}